| time (UTC) | temp C | wind direction | speed KPH | gust KPH | rain 1hr cm | rain 24hr cm | rain mn cm | humidity % | barometer mb |
| 20260906123225 | 21 | 83 | 3.2 | 9.7 | 0.00 | 0.00 | 0.00 | 94 | |
| 20260906122725 | 21 | 37 | 6.4 | 9.7 | 0.00 | 0.00 | 0.00 | 94 | |
| 20260906122220 | 21 | 54 | 6.4 | 9.7 | 0.00 | 0.00 | 0.00 | 94 | |
| 20260906121717 | 21 | 42 | 9.7 | 12.9 | 0.00 | 0.00 | 0.00 | 94 | |
| 20260906121213 | 21 | 43 | 3.2 | 11.3 | 0.00 | 0.00 | 0.00 | 94 | |
| 20260906120708 | 21 | 48 | 8.0 | 11.3 | 0.00 | 0.00 | 0.00 | 94 | |
| 20260906120205 | 21 | 37 | 8.0 | 12.9 | 0.00 | 0.00 | 0.00 | 94 | |
| 20260906115659 | 21 | 27 | 9.7 | 12.9 | 0.00 | 0.00 | 0.00 | 94 | |
| 20260906115155 | 21 | 51 | 6.4 | 12.9 | 0.00 | 0.00 | 0.00 | 94 | |
| 20260906114653 | 21 | 31 | 12.9 | 14.5 | 0.00 | 0.00 | 0.00 | 94 | |
| 20260906114149 | 21 | 7 | 9.7 | 11.3 | 0.00 | 0.00 | 0.00 | 93 | |
| 20260906113644 | 21 | 38 | 4.8 | 11.3 | 0.00 | 0.00 | 0.00 | 94 | |
| 20260906113143 | 21 | 33 | 6.4 | 9.7 | 0.00 | 0.00 | 0.00 | 93 | |
| 20260906112642 | 21 | 68 | 6.4 | 9.7 | 0.00 | 0.00 | 0.00 | 93 | |
| 20260906112140 | 21 | 87 | 4.8 | 9.7 | 0.00 | 0.00 | 0.00 | 94 | |
| 20260906111639 | 21 | 31 | 6.4 | 14.5 | 0.00 | 0.00 | 0.00 | 94 | |
| 20260906111134 | 21 | 44 | 6.4 | 6.4 | 0.00 | 0.00 | 0.00 | 94 | |
| 20260906110629 | 21 | 39 | 6.4 | 12.9 | 0.00 | 0.00 | 0.00 | 94 | |
| 20260906110129 | 21 | 62 | 8.0 | 9.7 | 0.00 | 0.00 | 0.00 | 94 | |
| 20260906105623 | 21 | 58 | 8.0 | 11.3 | 0.00 | 0.00 | 0.00 | 94 | |
| 20260906105120 | 21 | 47 | 6.4 | 11.3 | 0.00 | 0.00 | 0.00 | 95 | |
| 20260906104619 | 21 | 40 | 6.4 | 9.7 | 0.00 | 0.00 | 0.00 | 95 | |
| 20260906104113 | 21 | 54 | 6.4 | 9.7 | 0.00 | 0.00 | 0.00 | 96 | |
| 20260906103612 | 21 | 56 | 3.2 | 9.7 | 0.00 | 0.00 | 0.00 | 96 | |
| 20260906103108 | 21 | 48 | 6.4 | 9.7 | 0.00 | 0.00 | 0.00 | 96 | |
| 20260906102607 | 21 | 82 | 1.6 | 9.7 | 0.00 | 0.00 | 0.00 | 96 | |
| 20260906102102 | 21 | 51 | 6.4 | 11.3 | 0.00 | 0.00 | 0.00 | 96 | |
| 20260906101556 | 21 | 41 | 6.4 | 6.4 | 0.00 | 0.00 | 0.00 | 96 | |
| 20260906101046 | 21 | 88 | 4.8 | 9.7 | 0.00 | 0.00 | 0.00 | 96 | |
| 20260906100542 | 21 | 48 | 4.8 | 11.3 | 0.00 | 0.00 | 0.00 | 96 | |
| 20260906100041 | 21 | 58 | 6.4 | 11.3 | 0.00 | 0.00 | 0.00 | 96 | |
| 20260906095536 | 21 | 63 | 3.2 | 6.4 | 0.00 | 0.00 | 0.00 | 96 | |
| 20260906095032 | 21 | 68 | 4.8 | 11.3 | 0.00 | 0.00 | 0.00 | 96 | |
| 20260906094531 | 21 | 60 | 3.2 | 11.3 | 0.00 | 0.00 | 0.00 | 96 | |
| 20260906094027 | 21 | 77 | 4.8 | 12.9 | 0.00 | 0.00 | 0.00 | 96 | |
| 20260906093522 | 21 | 50 | 9.7 | 12.9 | 0.00 | 0.00 | 0.00 | 96 | |
| 20260906093023 | 21 | 45 | 14.5 | 17.7 | 0.00 | 0.00 | 0.00 | 96 | |
| 20260906092522 | 21 | 32 | 12.9 | 20.9 | 0.00 | 0.00 | 0.00 | 96 | |
| 20260906092018 | 21 | 58 | 9.7 | 17.7 | 0.00 | 0.00 | 0.00 | 96 | |
| 20260906091514 | 21 | 46 | 9.7 | 14.5 | 0.00 | 0.00 | 0.00 | 96 | |
| 20260906091010 | 21 | 33 | 8.0 | 11.3 | 0.00 | 0.00 | 0.00 | 96 | |
| 20260906090505 | 21 | 33 | 12.9 | 16.1 | 0.00 | 0.00 | 0.00 | 96 | |
| 20260906090004 | 21 | 60 | 12.9 | 17.7 | 0.00 | 0.00 | 0.00 | 96 | |
| 20260906085504 | 21 | 59 | 11.3 | 16.1 | 0.00 | 0.00 | 0.00 | 96 | |
| 20260906085003 | 21 | 43 | 12.9 | 14.5 | 0.00 | 0.00 | 0.00 | 96 | |
| 20260906084458 | 21 | 47 | 11.3 | 20.9 | 0.00 | 0.00 | 0.00 | 96 | |
| 20260906083956 | 21 | 42 | 9.7 | 12.9 | 0.00 | 0.00 | 0.00 | 96 | |
| 20260906083453 | 21 | 38 | 8.0 | 16.1 | 0.00 | 0.00 | 0.00 | 96 | |
| 20260906082952 | 21 | 35 | 9.7 | 17.7 | 0.00 | 0.00 | 0.00 | 95 | |
| 20260906082447 | 21 | 29 | 9.7 | 14.5 | 0.00 | 0.00 | 0.00 | 95 | |
| 20260906081943 | 21 | 33 | 12.9 | 20.9 | 0.00 | 0.00 | 0.00 | 95 | |
| 20260906081438 | 21 | 74 | 11.3 | 14.5 | 0.00 | 0.00 | 0.00 | 95 | |
| 20260906080934 | 21 | 40 | 11.3 | 12.9 | 0.00 | 0.00 | 0.00 | 95 | |
| 20260906080431 | 21 | 23 | 14.5 | 17.7 | 0.00 | 0.00 | 0.00 | 94 | |
| 20260906075930 | 21 | 41 | 12.9 | 14.5 | 0.00 | 0.00 | 0.00 | 94 | |
| 20260906075425 | 21 | 12 | 14.5 | 22.5 | 0.00 | 0.00 | 0.00 | 94 | |
| 20260906074921 | 21 | 26 | 14.5 | 20.9 | 0.00 | 0.00 | 0.00 | 94 | |
| 20260906074420 | 21 | 39 | 9.7 | 17.7 | 0.00 | 0.00 | 0.00 | 94 | |
| 20260906073919 | 21 | 19 | 9.7 | 20.9 | 0.00 | 0.00 | 0.00 | 93 | |
| 20260906073414 | 21 | 45 | 6.4 | 16.1 | 0.00 | 0.00 | 0.00 | 93 | |
| 20260906072911 | 21 | 32 | 9.7 | 17.7 | 0.00 | 0.00 | 0.00 | 93 | |
| 20260906072406 | 21 | 38 | 9.7 | 22.5 | 0.00 | 0.00 | 0.00 | 93 | |
| 20260906071902 | 21 | 33 | 9.7 | 14.5 | 0.00 | 0.00 | 0.00 | 93 | |
| 20260906071357 | 21 | 48 | 9.7 | 12.9 | 0.00 | 0.00 | 0.00 | 93 | |
| 20260906070853 | 21 | 23 | 9.7 | 20.9 | 0.00 | 0.00 | 0.00 | 93 | |
| 20260906070348 | 21 | 28 | 12.9 | 16.1 | 0.00 | 0.00 | 0.00 | 93 | |
| 20260906065843 | 21 | 42 | 11.3 | 16.1 | 0.00 | 0.00 | 0.00 | 93 | |
| 20260906065338 | 21 | 16 | 9.7 | 14.5 | 0.00 | 0.00 | 0.00 | 92 | |
| 20260906064834 | 21 | 36 | 9.7 | 16.1 | 0.00 | 0.00 | 0.00 | 92 | |
| 20260906064330 | 21 | 80 | 9.7 | 16.1 | 0.00 | 0.00 | 0.00 | 92 | |
| 20260906063824 | 21 | 16 | 9.7 | 12.9 | 0.00 | 0.00 | 0.00 | 91 | |
| 20260906063320 | 21 | 37 | 12.9 | 17.7 | 0.00 | 0.00 | 0.00 | 91 | |
| 20260906062815 | 21 | 66 | 11.3 | 16.1 | 0.00 | 0.00 | 0.00 | 91 | |
| 20260906062314 | 21 | 61 | 11.3 | 14.5 | 0.00 | 0.00 | 0.00 | 91 | |
| 20260906061809 | 22 | 50 | 9.7 | 16.1 | 0.00 | 0.00 | 0.00 | 90 | |
| 20260906061306 | 22 | 66 | 9.7 | 16.1 | 0.00 | 0.00 | 0.00 | 90 | |
| 20260906060801 | 22 | 63 | 11.3 | 14.5 | 0.00 | 0.00 | 0.00 | 90 | |
| 20260906060258 | 22 | 59 | 11.3 | 17.7 | 0.00 | 0.00 | 0.00 | 90 | |
| 20260906055754 | 22 | 37 | 11.3 | 14.5 | 0.00 | 0.00 | 0.00 | 90 | |
| 20260906055249 | 22 | 32 | 6.4 | 11.3 | 0.00 | 0.00 | 0.00 | 89 | |
| 20260906054744 | 22 | 51 | 6.4 | 11.3 | 0.00 | 0.00 | 0.00 | 89 | |
| 20260906054239 | 22 | 38 | 6.4 | 12.9 | 0.00 | 0.00 | 0.00 | 89 | |
| 20260906053736 | 22 | 38 | 8.0 | 9.7 | 0.00 | 0.00 | 0.00 | 88 | |
| 20260906053232 | 23 | 36 | 9.7 | 12.9 | 0.00 | 0.00 | 0.00 | 86 | |
| 20260906052726 | 23 | 31 | 9.7 | 14.5 | 0.00 | 0.00 | 0.00 | 85 | |
| 20260906052223 | 23 | 104 | 6.4 | 14.5 | 0.00 | 0.00 | 0.00 | 85 | |
| 20260906051720 | 23 | 60 | 8.0 | 12.9 | 0.00 | 0.00 | 0.00 | 84 | |
| 20260906051219 | 23 | 62 | 4.8 | 11.3 | 0.00 | 0.00 | 0.00 | 84 | |
| 20260906050714 | 23 | 49 | 6.4 | 11.3 | 0.00 | 0.00 | 0.00 | 84 | |
| 20260906050209 | 23 | 61 | 3.2 | 9.7 | 0.00 | 0.00 | 0.00 | 83 | |
| 20260906045708 | 23 | 42 | 6.4 | 12.9 | 0.00 | 0.00 | 0.00 | 83 | |
| 20260906045203 | 23 | 70 | 8.0 | 14.5 | 0.00 | 0.00 | 0.00 | 83 | |
| 20260906044659 | 23 | 45 | 16.1 | 20.9 | 0.00 | 0.00 | 0.00 | 83 | |
| 20260906044154 | 24 | 55 | 12.9 | 16.1 | 0.00 | 0.00 | 0.00 | 83 | |
| 20260906043650 | 24 | 46 | 11.3 | 14.5 | 0.00 | 0.00 | 0.00 | 83 | |
| 20260906043145 | 24 | 27 | 9.7 | 14.5 | 0.00 | 0.00 | 0.00 | 83 | |
| 20260906042645 | 24 | 38 | 12.9 | 17.7 | 0.00 | 0.00 | 0.00 | 83 | |
| 20260906042144 | 24 | 33 | 9.7 | 22.5 | 0.00 | 0.00 | 0.00 | 82 | |
| 20260906041641 | 25 | 53 | 19.3 | 22.5 | 0.00 | 0.00 | 0.00 | 82 | |
| 20260906041135 | 25 | 79 | 14.5 | 16.1 | 0.00 | 0.00 | 0.00 | 82 | |
| 20260906040631 | 25 | 26 | 11.3 | 16.1 | 0.00 | 0.00 | 0.00 | 82 | |
| 20260906040126 | 25 | 36 | 8.0 | 16.1 | 0.00 | 0.00 | 0.00 | 83 | |
| 20260906035621 | 25 | 86 | 12.9 | 17.7 | 0.00 | 0.00 | 0.00 | 84 | |
| 20260906035117 | 25 | 52 | 14.5 | 17.7 | 0.00 | 0.00 | 0.00 | 84 | |
| 20260906034611 | 25 | 32 | 11.3 | 20.9 | 0.00 | 0.00 | 0.00 | 84 | |
| 20260906034106 | 25 | 56 | 9.7 | 17.7 | 0.00 | 0.00 | 0.00 | 83 | |
| 20260906033601 | 25 | 34 | 11.3 | 16.1 | 0.00 | 0.00 | 0.00 | 83 | |
| 20260906033057 | 25 | 50 | 11.3 | 20.9 | 0.00 | 0.00 | 0.00 | 82 | |
| 20260906032554 | 26 | 58 | 12.9 | 22.5 | 0.00 | 0.00 | 0.00 | 82 | |
| 20260906032053 | 26 | 52 | 14.5 | 25.7 | 0.00 | 0.00 | 0.00 | 82 | |
| 20260906031549 | 26 | 44 | 9.7 | 20.9 | 0.00 | 0.00 | 0.00 | 82 | |
| 20260906031044 | 26 | 70 | 16.1 | 22.5 | 0.00 | 0.00 | 0.00 | 82 | |
| 20260906030543 | 26 | 54 | 11.3 | 22.5 | 0.00 | 0.00 | 0.00 | 82 | |
| 20260906030043 | 26 | 16 | 14.5 | 24.1 | 0.00 | 0.00 | 0.00 | 82 | |
| 20260906025543 | 26 | 34 | 16.1 | 25.7 | 0.00 | 0.00 | 0.00 | 81 | |
| 20260906025042 | 26 | 45 | 19.3 | 25.7 | 0.00 | 0.00 | 0.00 | 81 | |
| 20260906024538 | 27 | 42 | 11.3 | 22.5 | 0.00 | 0.00 | 0.00 | 80 | |
| 20260906024037 | 27 | 63 | 20.9 | 22.5 | 0.00 | 0.00 | 0.00 | 80 | |
| 20260906023533 | 27 | 39 | 14.5 | 22.5 | 0.00 | 0.00 | 0.00 | 80 | |
| 20260906023028 | 27 | 30 | 20.9 | 25.7 | 0.00 | 0.00 | 0.00 | 80 | |
| 20260906022524 | 27 | 51 | 14.5 | 25.7 | 0.00 | 0.00 | 0.00 | 79 | |
| 20260906022019 | 27 | 43 | 17.7 | 24.1 | 0.00 | 0.00 | 0.00 | 79 | |
| 20260906021515 | 27 | 40 | 12.9 | 17.7 | 0.00 | 0.00 | 0.00 | 79 | |
| 20260906021014 | 28 | 31 | 9.7 | 14.5 | 0.00 | 0.00 | 0.00 | 79 | |
| 20260906020513 | 28 | 54 | 9.7 | 12.9 | 0.00 | 0.00 | 0.00 | 78 | |
| 20260906020013 | 28 | 25 | 11.3 | 14.5 | 0.00 | 0.00 | 0.00 | 78 | |
| 20260906015512 | 28 | 22 | 8.0 | 14.5 | 0.00 | 0.00 | 0.00 | 78 | |
| 20260906015012 | 28 | 39 | 6.4 | 12.9 | 0.00 | 0.00 | 0.00 | 78 | |
| 20260906014507 | 28 | 33 | 9.7 | 12.9 | 0.00 | 0.00 | 0.00 | 77 | |
| 20260906014003 | 28 | 43 | 6.4 | 11.3 | 0.00 | 0.00 | 0.00 | 77 | |
| 20260906013458 | 28 | 31 | 6.4 | 11.3 | 0.00 | 0.00 | 0.00 | 76 | |
| 20260906012954 | 28 | 37 | 9.7 | 11.3 | 0.00 | 0.00 | 0.00 | 76 | |
| 20260906012449 | 29 | 57 | 3.2 | 6.4 | 0.00 | 0.00 | 0.00 | 76 | |
| 20260906011948 | 29 | 46 | 4.8 | 4.8 | 0.00 | 0.00 | 0.00 | 75 | |
| 20260906011444 | 29 | 54 | 6.4 | 6.4 | 0.00 | 0.00 | 0.00 | 75 | |
| 20260906010939 | 29 | 46 | 4.8 | 9.7 | 0.00 | 0.00 | 0.00 | 75 | |
| 20260906010434 | 29 | 26 | 6.4 | 11.3 | 0.00 | 0.00 | 0.00 | 74 | |
| 20260906005930 | 29 | 41 | 8.0 | 9.7 | 0.00 | 0.00 | 0.00 | 73 | |
| 20260906005429 | 30 | 42 | 6.4 | 12.9 | 0.00 | 0.00 | 0.00 | 73 | |
| 20260906004927 | 30 | 31 | 8.0 | 9.7 | 0.00 | 0.00 | 0.00 | 72 | |
| 20260906004422 | 30 | 35 | 8.0 | 11.3 | 0.00 | 0.00 | 0.00 | 71 | |
| 20260906003918 | 30 | 22 | 9.7 | 11.3 | 0.00 | 0.00 | 0.00 | 70 | |
| 20260906003413 | 30 | 47 | 6.4 | 12.9 | 0.00 | 0.00 | 0.00 | 70 | |
| 20260906002908 | 30 | 43 | 8.0 | 9.7 | 0.00 | 0.00 | 0.00 | 69 | |
| 20260906002408 | 31 | 71 | 8.0 | 11.3 | 0.00 | 0.00 | 0.00 | 69 | |
| 20260906001903 | 31 | 40 | 4.8 | 9.7 | 0.00 | 0.00 | 0.00 | 68 | |
| 20260906001359 | 31 | 41 | 8.0 | 12.9 | 0.00 | 0.00 | 0.00 | 67 | |
| 20260906000900 | 31 | 38 | 6.4 | 12.9 | 0.00 | 0.00 | 0.00 | 66 | |
| 20260906000359 | 31 | 22 | 11.3 | 14.5 | 0.00 | 0.00 | 0.00 | 65 | |
| 20260905235854 | 31 | 16 | 11.3 | 14.5 | 0.00 | 0.00 | 0.00 | 64 | |
| 20260905235349 | 32 | 22 | 14.5 | 16.1 | 0.00 | 0.00 | 0.00 | 63 | |
| 20260905234844 | 32 | 13 | 14.5 | 16.1 | 0.00 | 0.00 | 0.00 | 62 | |
| 20260905234339 | 32 | 6 | 11.3 | 14.5 | 0.00 | 0.00 | 0.00 | 61 | |
| 20260905233834 | 32 | 12 | 11.3 | 14.5 | 0.00 | 0.00 | 0.00 | 59 | |
| 20260905233329 | 32 | 2 | 14.5 | 16.1 | 0.00 | 0.00 | 0.00 | 59 | |
| 20260905232828 | 33 | 2 | 14.5 | 17.7 | 0.00 | 0.00 | 0.00 | 58 | |
| 20260905232325 | 33 | 3 | 17.7 | 20.9 | 0.00 | 0.00 | 0.00 | 57 | |
| 20260905231820 | 33 | 345 | 17.7 | 20.9 | 0.00 | 0.00 | 0.00 | 58 | |
| 20260905231315 | 33 | 345 | 17.7 | 22.5 | 0.00 | 0.00 | 0.00 | 57 | |
| 20260905230811 | 33 | 2 | 19.3 | 25.7 | 0.00 | 0.00 | 0.00 | 56 | |
| 20260905230309 | 33 | 341 | 20.9 | 24.1 | 0.00 | 0.00 | 0.00 | 56 | |
| 20260905225809 | 33 | 2 | 12.9 | 17.7 | 0.00 | 0.00 | 0.00 | 56 | |
| 20260905225306 | 33 | 349 | 20.9 | 24.1 | 0.00 | 0.00 | 0.00 | 55 | |
| 20260905224803 | 33 | 340 | 17.7 | 20.9 | 0.00 | 0.00 | 0.00 | 55 | |
| 20260905224259 | 33 | 1 | 20.9 | 24.1 | 0.00 | 0.00 | 0.00 | 55 | |
| 20260905223755 | 33 | 23 | 20.9 | 24.1 | 0.00 | 0.00 | 0.00 | 56 | |
| 20260905223252 | 34 | 352 | 19.3 | 25.7 | 0.00 | 0.00 | 0.00 | 54 | |
| 20260905222747 | 34 | 11 | 16.1 | 17.7 | 0.00 | 0.00 | 0.00 | 54 | |
| 20260905222246 | 34 | 17 | 14.5 | 17.7 | 0.00 | 0.00 | 0.00 | 55 | |
| 20260905221742 | 34 | 346 | 14.5 | 17.7 | 0.00 | 0.00 | 0.00 | 54 | |
| 20260905221239 | 34 | 7 | 19.3 | 24.1 | 0.00 | 0.00 | 0.00 | 53 | |
| 20260905220734 | 34 | 24 | 17.7 | 22.5 | 0.00 | 0.00 | 0.00 | 53 | |
| 20260905220230 | 34 | 22 | 20.9 | 27.4 | 0.00 | 0.00 | 0.00 | 52 | |
| 20260905215729 | 34 | 22 | 17.7 | 25.7 | 0.00 | 0.00 | 0.00 | 53 | |
| 20260905215225 | 34 | 28 | 19.3 | 24.1 | 0.00 | 0.00 | 0.00 | 53 | |
| 20260905214721 | 34 | 8 | 19.3 | 25.7 | 0.00 | 0.00 | 0.00 | 53 | |
| 20260905214216 | 34 | 329 | 19.3 | 25.7 | 0.00 | 0.00 | 0.00 | 51 | |
| 20260905213712 | 35 | 353 | 19.3 | 25.7 | 0.00 | 0.00 | 0.00 | 48 | |
| 20260905213208 | 35 | 356 | 17.7 | 22.5 | 0.00 | 0.00 | 0.00 | 47 | |
| 20260905212702 | 35 | 353 | 17.7 | 22.5 | 0.00 | 0.00 | 0.00 | 47 | |
| 20260905212201 | 35 | 342 | 8.0 | 17.7 | 0.00 | 0.00 | 0.00 | 48 | |
| 20260905211656 | 35 | 345 | 14.5 | 16.1 | 0.00 | 0.00 | 0.00 | 48 | |
| 20260905211152 | 35 | 347 | 16.1 | 20.9 | 0.00 | 0.00 | 0.00 | 49 | |
| 20260905210648 | 36 | 337 | 22.5 | 24.1 | 0.00 | 0.00 | 0.00 | 45 | |
| 20260905210148 | 36 | 330 | 6.4 | 11.3 | 0.00 | 0.00 | 0.00 | 44 | |
| 20260905205648 | 36 | 354 | 16.1 | 16.1 | 0.00 | 0.00 | 0.00 | 44 | |
| 20260905205147 | 36 | 16 | 9.7 | 14.5 | 0.00 | 0.00 | 0.00 | 45 | |
| 20260905204646 | 36 | 6 | 11.3 | 17.7 | 0.00 | 0.00 | 0.00 | 43 | |
| 20260905204142 | 36 | 351 | 12.9 | 20.9 | 0.00 | 0.00 | 0.00 | 44 | |
| 20260905203636 | 36 | 312 | 11.3 | 16.1 | 0.00 | 0.00 | 0.00 | 44 | |
| 20260905203132 | 36 | 109 | 8.0 | 17.7 | 0.00 | 0.00 | 0.00 | 46 | |
| 20260905202627 | 36 | 356 | 11.3 | 12.9 | 0.00 | 0.00 | 0.00 | 44 | |
| 20260905202122 | 36 | 331 | 16.1 | 20.9 | 0.00 | 0.00 | 0.00 | 43 | |
| 20260905201618 | 36 | 4 | 12.9 | 16.1 | 0.00 | 0.00 | 0.00 | 44 | |
| 20260905201117 | 36 | 342 | 9.7 | 14.5 | 0.00 | 0.00 | 0.00 | 45 | |
| 20260905200613 | 35 | 330 | 9.7 | 17.7 | 0.00 | 0.00 | 0.00 | 46 | |
| 20260905200109 | 35 | 340 | 19.3 | 22.5 | 0.00 | 0.00 | 0.00 | 45 | |
| 20260905195607 | 36 | 324 | 19.3 | 24.1 | 0.00 | 0.00 | 0.00 | 44 | |
| 20260905195103 | 36 | 328 | 17.7 | 17.7 | 0.00 | 0.00 | 0.00 | 44 | |
| 20260905194602 | 36 | 338 | 12.9 | 22.5 | 0.00 | 0.00 | 0.00 | 44 | |
| 20260905194101 | 36 | 156 | 4.8 | 14.5 | 0.00 | 0.00 | 0.00 | 44 | |
| 20260905193556 | 36 | 223 | 8.0 | 12.9 | 0.00 | 0.00 | 0.00 | 43 | |
| 20260905193052 | 36 | 322 | 17.7 | 17.7 | 0.00 | 0.00 | 0.00 | 43 | |
| 20260905192548 | 36 | 145 | 0.0 | 11.3 | 0.00 | 0.00 | 0.00 | 44 | |
| 20260905192044 | 35 | 348 | 8.0 | 20.9 | 0.00 | 0.00 | 0.00 | 46 | |
| 20260905191542 | 35 | 319 | 11.3 | 14.5 | 0.00 | 0.00 | 0.00 | 47 | |
| 20260905191041 | 35 | 333 | 16.1 | 20.9 | 0.00 | 0.00 | 0.00 | 47 | |
| 20260905190540 | 35 | 354 | 11.3 | 14.5 | 0.00 | 0.00 | 0.00 | 46 | |
| 20260905190039 | 35 | 344 | 14.5 | 24.1 | 0.00 | 0.00 | 0.00 | 46 | |
| 20260905185539 | 36 | 343 | 25.7 | 33.8 | 0.00 | 0.00 | 0.00 | 44 | |
| 20260905185038 | 36 | 359 | 6.4 | 12.9 | 0.00 | 0.00 | 0.00 | 44 | |
| 20260905184539 | 35 | 204 | 9.7 | 16.1 | 0.00 | 0.00 | 0.00 | 44 | |
| 20260905184038 | 35 | 16 | 11.3 | 17.7 | 0.00 | 0.00 | 0.00 | 46 | |
| 20260905183537 | 35 | 281 | 8.0 | 11.3 | 0.00 | 0.00 | 0.00 | 45 | |
| 20260905183033 | 35 | 13 | 11.3 | 24.1 | 0.00 | 0.00 | 0.00 | 45 | |
| 20260905182533 | 35 | 7 | 17.7 | 22.5 | 0.00 | 0.00 | 0.00 | 45 | |
| 20260905182033 | 35 | 28 | 14.5 | 17.7 | 0.00 | 0.00 | 0.00 | 47 | |
| 20260905181528 | 35 | 346 | 17.7 | 17.7 | 0.00 | 0.00 | 0.00 | 47 | |
| 20260905181027 | 35 | 82 | 11.3 | 16.1 | 0.00 | 0.00 | 0.00 | 48 | |
| 20260905180527 | 35 | 348 | 14.5 | 16.1 | 0.00 | 0.00 | 0.00 | 46 | |
| 20260905180022 | 35 | 354 | 16.1 | 20.9 | 0.00 | 0.00 | 0.00 | 47 | |
| 20260905175521 | 35 | 13 | 11.3 | 22.5 | 0.00 | 0.00 | 0.00 | 46 | |
| 20260905175017 | 35 | 349 | 16.1 | 20.9 | 0.00 | 0.00 | 0.00 | 47 | |
| 20260905174513 | 35 | 304 | 14.5 | 17.7 | 0.00 | 0.00 | 0.00 | 48 | |
| 20260905174008 | 35 | 32 | 12.9 | 22.5 | 0.00 | 0.00 | 0.00 | 46 | |
| 20260905173504 | 35 | 320 | 9.7 | 12.9 | 0.00 | 0.00 | 0.00 | 48 | |
| 20260905173000 | 35 | 330 | 14.5 | 17.7 | 0.00 | 0.00 | 0.00 | 46 | |
| 20260905172458 | 35 | 305 | 9.7 | 12.9 | 0.00 | 0.00 | 0.00 | 47 | |
| 20260905171954 | 35 | 323 | 9.7 | 12.9 | 0.00 | 0.00 | 0.00 | 48 | |
| 20260905171450 | 35 | 339 | 12.9 | 14.5 | 0.00 | 0.00 | 0.00 | 47 | |
| 20260905170946 | 35 | 42 | 6.4 | 9.7 | 0.00 | 0.00 | 0.00 | 48 | |
| 20260905170442 | 35 | 4 | 11.3 | 12.9 | 0.00 | 0.00 | 0.00 | 50 | |
| 20260905165941 | 35 | 40 | 12.9 | 16.1 | 0.00 | 0.00 | 0.00 | 51 | |
| 20260905165436 | 34 | 40 | 9.7 | 14.5 | 0.00 | 0.00 | 0.00 | 50 | |
| 20260905164932 | 34 | 10 | 12.9 | 17.7 | 0.00 | 0.00 | 0.00 | 50 | |
| 20260905164426 | 35 | 21 | 9.7 | 16.1 | 0.00 | 0.00 | 0.00 | 48 | |
| 20260905163921 | 34 | 49 | 8.0 | 12.9 | 0.00 | 0.00 | 0.00 | 48 | |
| 20260905163418 | 35 | 346 | 8.0 | 14.5 | 0.00 | 0.00 | 0.00 | 49 | |
| 20260905162914 | 35 | 340 | 12.9 | 14.5 | 0.00 | 0.00 | 0.00 | 49 | |
| 20260905162414 | 35 | 305 | 9.7 | 12.9 | 0.00 | 0.00 | 0.00 | 49 | |
| 20260905161908 | 34 | 263 | 3.2 | 11.3 | 0.00 | 0.00 | 0.00 | 50 | |
| 20260905161403 | 34 | 164 | 1.6 | 9.7 | 0.00 | 0.00 | 0.00 | 51 | |
| 20260905160901 | 34 | 6 | 12.9 | 14.5 | 0.00 | 0.00 | 0.00 | 51 | |
| 20260905160354 | 34 | 11 | 11.3 | 17.7 | 0.00 | 0.00 | 0.00 | 51 | |
| 20260905155849 | 34 | 318 | 8.0 | 9.7 | 0.00 | 0.00 | 0.00 | 51 | |
| 20260905155349 | 34 | 25 | 6.4 | 9.7 | 0.00 | 0.00 | 0.00 | 51 | |
| 20260905154848 | 34 | 354 | 6.4 | 6.4 | 0.00 | 0.00 | 0.00 | 50 | |
| 20260905154344 | 34 | 220 | 3.2 | 4.8 | 0.00 | 0.00 | 0.00 | 51 | |
| 20260905153839 | 33 | 179 | 3.2 | 4.8 | 0.00 | 0.00 | 0.00 | 52 | |
| 20260905153336 | 33 | 102 | 4.8 | 4.8 | 0.00 | 0.00 | 0.00 | 54 | |
| 20260905152835 | 33 | 339 | 6.4 | 9.7 | 0.00 | 0.00 | 0.00 | 53 | |
| 20260905152334 | 33 | 154 | 3.2 | 9.7 | 0.00 | 0.00 | 0.00 | 53 | |
| 20260905151829 | 33 | 194 | 4.8 | 6.4 | 0.00 | 0.00 | 0.00 | 53 | |
| 20260905151325 | 33 | 76 | 3.2 | 6.4 | 0.00 | 0.00 | 0.00 | 53 | |
| 20260905150824 | 33 | 127 | 0.0 | 1.6 | 0.00 | 0.00 | 0.00 | 54 | |
| 20260905150319 | 32 | 172 | 3.2 | 6.4 | 0.00 | 0.00 | 0.00 | 55 | |
| 20260905145817 | 33 | 324 | 6.4 | 11.3 | 0.00 | 0.00 | 0.00 | 53 | |
| 20260905145316 | 32 | 194 | 4.8 | 4.8 | 0.00 | 0.00 | 0.00 | 55 | |
| 20260905144815 | 32 | 139 | 3.2 | 11.3 | 0.00 | 0.00 | 0.00 | 56 | |
| 20260905144311 | 32 | 245 | 4.8 | 11.3 | 0.00 | 0.00 | 0.00 | 56 | |
| 20260905143809 | 32 | 324 | 9.7 | 12.9 | 0.00 | 0.00 | 0.00 | 56 | |
| 20260905143304 | 32 | 334 | 8.0 | 11.3 | 0.00 | 0.00 | 0.00 | 57 | |
| 20260905142803 | 32 | 274 | 6.4 | 6.4 | 0.00 | 0.00 | 0.00 | 56 | |
| 20260905142257 | 32 | 256 | 3.2 | 6.4 | 0.00 | 0.00 | 0.00 | 58 | |
| 20260905141754 | 31 | 141 | 1.6 | 4.8 | 0.00 | 0.00 | 0.00 | 59 | |
| 20260905141249 | 31 | 200 | 4.8 | 9.7 | 0.00 | 0.00 | 0.00 | 58 | |
| 20260905140744 | 31 | 210 | 6.4 | 11.3 | 0.00 | 0.00 | 0.00 | 58 | |
| 20260905140239 | 31 | 149 | 1.6 | 4.8 | 0.00 | 0.00 | 0.00 | 60 | |
| 20260905135737 | 32 | 137 | 3.2 | 9.7 | 0.00 | 0.00 | 0.00 | 59 | |
| 20260905135234 | 31 | 139 | 3.2 | 4.8 | 0.00 | 0.00 | 0.00 | 59 | |
| 20260905134733 | 31 | 137 | 0.0 | 4.8 | 0.00 | 0.00 | 0.00 | 62 | |
| 20260905134232 | 31 | 228 | 6.4 | 9.7 | 0.00 | 0.00 | 0.00 | 59 | |
| 20260905133727 | 31 | 169 | 3.2 | 4.8 | 0.00 | 0.00 | 0.00 | 58 | |
| 20260905133223 | 31 | 136 | 0.0 | 1.6 | 0.00 | 0.00 | 0.00 | 59 | |
| 20260905132721 | 31 | 154 | 0.0 | 3.2 | 0.00 | 0.00 | 0.00 | 59 | |
| 20260905132217 | 31 | 154 | 0.0 | 3.2 | 0.00 | 0.00 | 0.00 | 59 | |
| 20260905131712 | 31 | 137 | 1.6 | 3.2 | 0.00 | 0.00 | 0.00 | 60 | |
| 20260905131208 | 30 | 135 | 0.0 | 0.0 | 0.00 | 0.00 | 0.00 | 63 | |
| 20260905130707 | 30 | 154 | 0.0 | 1.6 | 0.00 | 0.00 | 0.00 | 63 | |
| 20260905130202 | 30 | 149 | 0.0 | 1.6 | 0.00 | 0.00 | 0.00 | 64 | |
| 20260905125702 | 29 | 150 | 1.6 | 1.6 | 0.00 | 0.00 | 0.00 | 64 | |
| 20260905125157 | 29 | 156 | 1.6 | 1.6 | 0.00 | 0.00 | 0.00 | 64 | |
| 20260905124654 | 30 | 149 | 1.6 | 1.6 | 0.00 | 0.00 | 0.00 | 62 | |
| 20260905124149 | 30 | 135 | 0.0 | 0.0 | 0.00 | 0.00 | 0.00 | 61 | |
| 20260905123644 | 29 | 134 | 0.0 | 0.0 | 0.00 | 0.00 | 0.00 | 63 |